This is the latest recevied weather packets stored in our database for station/object N8XHB. If no packets are shown the sender has not sent any weather packets the latest 10 day(s).
| Time | Temp. | Humidity | Pressure | Rain* | Wind** | Luminosity | Snow |
|---|---|---|---|---|---|---|---|
| 1777854471 | 12.22° C | 58% | 1007.2 hPa | 0 mm | - | 9 W/m² | - |
| 1777854168 | 12.22° C | 58% | 1007 hPa | 0 mm | - | 11 W/m² | - |
| 1777853866 | 12.78° C | 58% | 1007 hPa | 0 mm | - | 14 W/m² | - |
| 1777853563 | 12.78° C | 57% | 1007 hPa | 0 mm | - | 16 W/m² | - |
| 1777853260 | 12.78° C | 57% | 1007.2 hPa | 0 mm | - | 18 W/m² | - |
| 1777852957 | 12.78° C | 57% | 1007.4 hPa | 0 mm | - | 21 W/m² | - |
| 1777852655 | 12.78° C | 57% | 1007.3 hPa | 0 mm | - | 24 W/m² | - |
| 1777852352 | 12.78° C | 57% | 1007.1 hPa | 0 mm | - | 26 W/m² | - |
| 1777852050 | 12.78° C | 57% | 1007.3 hPa | 0 mm | - | 28 W/m² | - |
| 1777851748 | 12.78° C | 57% | 1007.3 hPa | 0 mm | - | 30 W/m² | - |
| 1777851444 | 12.78° C | 56% | 1007.4 hPa | 0 mm | - | 31 W/m² | - |
| 1777851140 | 12.78° C | 56% | 1007.3 hPa | 0 mm | - | 33 W/m² | - |
| 1777850837 | 12.78° C | 56% | 1007.5 hPa | 0 mm | - | 35 W/m² | - |
| 1777850534 | 12.78° C | 56% | 1007.6 hPa | 0 mm | - | 37 W/m² | - |
| 1777850233 | 12.78° C | 56% | 1007.7 hPa | 0 mm | - | 39 W/m² | - |
| 1777849929 | 12.78° C | 55% | 1007.8 hPa | 0 mm | - | 41 W/m² | - |
| 1777849625 | 12.78° C | 55% | 1007.8 hPa | 0 mm | - | 43 W/m² | - |
| 1777849322 | 12.78° C | 55% | 1007.9 hPa | 0 mm | - | 45 W/m² | - |
| 1777849020 | 12.78° C | 55% | 1008 hPa | 0 mm | - | 48 W/m² | - |
| 1777848720 | 12.78° C | 55% | 1007.9 hPa | 0 mm | - | 49 W/m² | - |
| 1777848417 | 12.78° C | 55% | 1008.1 hPa | 0 mm | - | 52 W/m² | - |
| 1777848115 | 12.78° C | 54% | 1008.2 hPa | 0 mm | - | 60 W/m² | - |
| 1777847813 | 12.78° C | 55% | 1008.3 hPa | 0 mm | - | 77 W/m² | - |
| 1777847509 | 12.78° C | 54% | 1008.4 hPa | 0 mm | - | 82 W/m² | - |
| 1777847206 | 13.33° C | 54% | 1008.5 hPa | 0 mm | - | 67 W/m² | - |
* Rain latest hour (hover to see other rain measurements)
** Current wind speed in m/s (hover to see current wind gust speed)